Location: Unspecified
(48.2082°N, 0.0000°E)
Time: 22:58:28
(UTC+00:00)

Vanguard 1 - Pass Details

Date: 01 July 2019
Orbit: 653 x 3830 km, 34.3° (Epoch: 15 July)

Event Time Altitude Azimuth Distance (km) Brightness Sun altitude
Rises 06:35:50 0° 276° (W) 6,686 13.8 22.2°
Reaches altitude 10° 06:43:00 10° 260° (W) 4,961 13.1 23.4°
Maximum altitude 06:49:55 16° 228° (SW) 3,687 12.7 24.5°
Drops below altitude 10° 06:55:08 10° 193° (SSW) 3,544 12.8 25.4°
Sets 06:58:57 0° 172° (S) 4,055 13.3 26.0°
